CAPE
6 6 8 8 6 4 4 3 4 3 4 2 1 2 0 0 0 0 0 0 0 0 0 0 0 0 0 0 0 0 0 0 0 0 0 0 0 0 0 0 0 0 0 0 0 0 0 0 0 0 0 0 0 0
9 7 11 11 7 4 3 3 3 5 6 11 12 4 0 0 0 0 0 0 0 0 0 0 0 0 0 0 0 0 0 0 0 0 0 0 0 0 0 0 0 0 0 0 0 0 0 1 0 0 1 0 0 1
8 11 10 9 7 10 10 8 6 13 13 15 17 6 0 0 0 0 0 0 0 0 0 0 0 0 0 0 0 0 0 0 0 0 0 0 0 0 0 0 0 0 0 0 0 0 0 0 1 1 0 0 1 0
10 8 8 7 14 25 17 10 7 12 14 10 2 0 0 0 0 0 0 0 0 0 0 0 0 0 0 0 0 0 0 0 0 0 0 0 0 0 0 0 0 0 0 0 0 0 0 0 0 0 0 0 0 0
10 9 9 21 15 15 19 15 5 1 0 0 0 0 0 0 0 0 0 0 0 0 0 0 0 0 0 0 0 0 0 0 0 0 0 0 0 0 0 0 0 0 0 0 0 0 0 0 0 0 0 0 0 0
9 8 9 5 0 0 4 0 0 0 0 0 0 0 0 0 0 0 0 0 0 0 0 0 0 0 0 0 0 0 0 0 0 0 0 0 0 0 0 0 0 0 0 0 0 0 0 0 0 0 0 0 0 0
9 8 9 3 0 3 11 0 0 0 0 0 0 0 0 0 0 0 0 0 0 0 0 0 0 0 0 0 0 0 0 0 0 0 0 0 0 0 0 0 0 0 0 0 0 0 0 0 0 0 0 0 0 0
7 8 3 1 1 10 11 0 0 0 0 0 0 0 0 0 0 0 0 0 0 0 0 0 0 1 0 0 0 0 0 0 0 0 0 0 0 0 0 0 0 0 0 0 0 0 0 0 0 0 0 0 0 0
6 8 8 0 0 3 3 0 0 0 0 0 0 0 0 0 0 0 0 0 0 0 0 0 0 0 0 0 0 0 0 0 0 0 0 0 0 0 0 0 0 0 0 0 0 0 0 0 0 0 0 0 0 0
10 15 3 0 1 0 0 0 0 0 0 0 0 0 0 0 0 0 0 0 0 0 0 0 0 0 0 0 0 0 0 0 0 0 0 0 0 0 0 0 0 0 0 0 0 0 0 0 0 0 0 0 0 0
3 1 3 0 0 0 0 0 0 0 0 0 0 0 0 0 0 0 0 0 0 0 0 0 0 0 0 0 0 0 0 0 0 0 0 0 0 0 0 0 0 0 0 0 0 0 0 0 0 0 0 0 0 0
0 0 0 0 0 0 0 0 0 0 0 0 0 0 0 0 0 0 0 0 0 0 0 0 0 0 0 0 0 0 0 0 0 0 0 0 0 0 0 0 0 0 0 0 0 0 0 0 0 0 0 0 0 0
0 0 2 0 2 0 0 0 0 0 0 0 0 0 0 0 0 0 0 0 0 0 0 0 0 0 0 0 0 0 0 0 0 0 0 0 0 0 0 0 0 0 0 0 0 0 0 0 0 0 0 0 0 0
0 0 14 6 0 0 0 0 0 0 0 0 0 0 0 0 0 0 0 0 0 0 0 0 0 0 0 0 0 0 0 0 0 0 0 0 0 0 0 0 0 0 0 0 0 0 0 0 0 0 0 0 0 0
0 2 15 0 0 0 0 0 0 0 0 0 0 0 0 0 0 0 1 0 0 0 0 0 0 0 0 0 0 0 0 0 0 0 0 0 0 0 0 0 0 0 0 0 0 0 0 0 0 0 0 0 0 0
3 9 0 0 0 0 0 0 0 0 0 0 0 0 0 0 1 2 0 0 0 0 0 0 0 0 0 0 0 0 0 0 0 0 0 0 0 0 0 0 0 0 0 0 0 0 0 0 0 0 0 0 0 0
0 0 5 0 0 0 0 0 0 0 0 0 0 0 0 0 0 0 0 0 0 0 0 0 0 0 0 0 0 0 0 0 0 0 0 0 0 0 0 0 0 0 0 0 0 0 0 0 0 0 0 0 0 0
0 3 2 1 0 0 0 0 0 0 0 0 0 0 3 1 1 0 0 0 0 0 0 0 0 0 0 0 0 0 0 0 0 0 0 0 0 0 0 0 0 0 0 0 0 0 0 0 0 0 0 0 0 0
2 2 0 0 0 0 0 0 0 0 0 1 0 0 1 2 1 1 1 0 0 0 0 0 0 0 0 0 0 0 0 0 0 0 0 0 0 0 0 0 0 0 0 0 0 0 0 0 0 0 0 0 0 0
3 1 0 0 0 0 0 0 0 0 0 0 0 0 0 0 0 0 0 0 0 0 0 0 0 0 0 0 0 0 0 0 0 0 0 0 0 0 0 0 0 0 0 0 0 0 0 0 0 0 0 0 0 0
1 0 0 0 0 0 0 0 0 0 0 0 0 0 0 0 0 0 0 0 0 0 0 0 0 0 0 0 0 1 0 0 0 0 0 0 0 0 0 0 0 0 0 0 0 0 0 0 0 0 0 0 0 0
0 2 0 0 0 0 0 0 0 0 0 0 0 0 0 0 0 0 0 0 0 0 0 0 0 0 0 0 0 0 0 0 0 0 0 0 0 0 0 0 0 0 0 0 0 0 0 0 0 0 0 0 0 0
0 0 0 0 0 0 0 0 0 0 0 0 0 0 0 0 0 0 0 0 0 0 0 0 0 0 0 0 0 0 0 0 0 0 0 0 0 0 0 0 0 0 0 0 0 0 0 0 0 0 0 0 0 0
0 0 0 0 0 0 0 0 0 0 0 0 0 0 0 0 0 0 0 0 0 0 0 0 0 0 0 0 0 0 0 0 0 0 0 0 0 0 0 0 0 0 0 0 0 0 0 0 0 0 0 0 0 0
0 0 0 0 0 0 0 0 0 0 0 0 0 0 0 0 0 0 0 0 0 0 0 1 0 0 0 0 0 0 0 0 0 0 0 0 0 0 0 0 0 0 0 0 0 0 0 0 0 0 0 0 0 0
0 0 0 0 0 0 0 0 0 0 0 0 0 0 0 0 0 0 0 0 0 0 0 0 0 0 0 0 0 0 0 0 0 0 0 0 0 0 0 0 0 0 0 0 0 0 0 0 0 0 0 0 0 0
0 0 0 0 0 0 0 0 0 0 0 0 0 0 0 0 0 0 0 0 0 0 0 0 0 0 0 0 0 0 0 0 0 0 0 0 0 0 0 0 0 0 0 0 0 0 0 0 0 0 0 0 0 0
0 0 0 0 0 0 0 0 0 0 0 0 0 0 0 0 0 0 0 0 0 0 0 0 0 0 0 0 0 0 0 0 0 0 0 0 0 0 0 0 0 0 0 0 0 0 0 0 0 0 0 0 0 0
0 0 0 0 0 0 0 0 0 0 0 0 0 0 0 0 0 0 0 0 0 0 0 0 0 0 0 0 0 0 0 0 0 0 0 0 0 0 0 0 0 0 0 0 0 0 0 0 0 0 0 0 0 0
0 0 0 0 0 0 0 0 0 0 0 0 0 0 0 0 0 0 0 0 0 0 0 0 0 0 0 0 0 0 0 0 0 0 0 0 0 0 0 0 0 0 0 0 0 0 0 0 0 0 0 0 0 0
0 0 0 0 0 0 0 0 0 0 0 0 0 0 0 0 0 0 0 0 0 0 0 0 0 0 0 0 0 0 0 0 0 0 0 0 0 0 0 0 0 0 0 0 0 0 0 0 0 0 0 0 0 0
0 0 0 0 0 0 0 0 0 0 0 0 0 0 0 0 0 0 0 0 0 0 0 0 0 0 0 0 0 0 0 0 0 0 0 0 0 0 0 0 0 0 0 0 0 0 0 0 0 0 0 0 0 0
0 0 0 0 0 0 0 0 0 0 0 0 0 0 0 0 0 0 0 0 0 0 0 0 0 0 0 0 0 0 0 0 0 0 0 0 0 0 0 0 0 0 0 0 0 0 0 0 0 0 0 0 0 0
CIN
-0 -0 -0 -0 -0 -0 -0 -0 -0 -0 -0 -0 -0 -0 -0 -0 -0 -0 -0 -0 -0 -0 -0 -0 -0 -0 -0 -0 -0 -0 -0 -0 -0 -0 -0 -0 -0 -0 -0 -0 -0 -0 -0 -0 -0 -0 -0 -0 -0 -0 -0 -0 -0 -0
-0 -0 -0 -0 -0 -0 -0 -0 -0 -0 -0 -0 -0 -5 -0 -0 -0 -0 -0 -0 -0 -0 -0 -0 -0 -0 -0 -0 -0 -0 -0 -0 -0 -0 -0 -0 -0 -0 -0 -0 -0 -0 -0 -0 -0 -0 -0 -0 -0 -0 -0 -0 -0 -0
-0 -0 -0 -0 -0 -0 -0 -0 -0 -1 -13 -19 -21 -28 -0 -0 -0 -0 -0 -0 -0 -0 -0 -0 -0 -0 -0 -0 -0 -0 -0 -0 -0 -0 -0 -0 -0 -0 -0 -0 -0 -0 -0 -0 -0 -0 -0 -0 -0 -0 -0 -0 -0 -0
-0 -0 -0 -0 -0 -0 -5 -10 -18 -16 -31 -43 -53 -0 -0 -0 -0 -0 -0 -0 -0 -0 -0 -0 -0 -0 -0 -0 -0 -0 -0 -0 -0 -0 -0 -0 -0 -0 -0 -0 -0 -0 -0 -0 -0 -0 -0 -0 -0 -0 -0 -0 -0 -0
-0 -0 -0 -0 -0 -2 -4 -12 -33 -31 -25 -0 -0 -0 -0 -0 -0 -0 -0 -0 -0 -0 -0 -0 -0 -0 -0 -0 -0 -0 -0 -0 -0 -0 -0 -0 -0 -0 -0 -0 -0 -0 -0 -0 -0 -0 -0 -0 -0 -0 -0 -0 -0 -0
-0 -0 -0 -1 -0 -0 -11 -0 -0 -0 -0 -0 -0 -0 -0 -0 -0 -0 -0 -0 -0 -0 -0 -0 -0 -0 -0 -0 -0 -0 -0 -0 -0 -0 -0 -0 -0 -0 -0 -0 -0 -0 -0 -0 -0 -0 -0 -0 -0 -0 -0 -0 -0 -0
-0 -0 -0 -7 -0 -6 -7 -0 -0 -0 -0 -0 -0 -0 -0 -0 -0 -0 -0 -0 -0 -0 -0 -0 -0 -0 -0 -0 -0 -0 -0 -0 -0 -0 -0 -0 -0 -0 -0 -0 -0 -0 -0 -0 -0 -0 -0 -0 -0 -0 -0 -0 -0 -0
-0 -1 -4 -7 -2 -9 -11 -0 -0 -0 -0 -0 -0 -0 -0 -0 -0 -0 -0 -0 -0 -0 -0 -0 -0 -0 -0 -0 -0 -0 -0 -0 -0 -0 -0 -0 -0 -0 -0 -0 -0 -0 -0 -0 -0 -0 -0 -0 -0 -0 -0 -0 -0 -0
-0 -1 -3 -0 -0 -8 -13 -0 -0 -0 -0 -0 -0 -0 -0 -0 -0 -0 -0 -0 -0 -0 -0 -0 -0 -0 -0 -0 -0 -0 -0 -0 -0 -0 -0 -0 -0 -0 -0 -0 -0 -0 -0 -0 -0 -0 -0 -0 -0 -0 -0 -0 -0 -0
-2 -2 -4 -0 -4 -0 -0 -0 -0 -0 -0 -0 -0 -0 -0 -0 -0 -0 -0 -0 -0 -0 -0 -0 -0 -0 -0 -0 -0 -0 -0 -0 -0 -0 -0 -0 -0 -0 -0 -0 -0 -0 -0 -0 -0 -0 -0 -0 -0 -0 -0 -0 -0 -0
-2 -3 -10 -0 -0 -0 -0 -0 -0 -0 -0 -0 -0 -0 -0 -0 -0 -0 -0 -0 -0 -0 -0 -0 -0 -0 -0 -0 -0 -0 -0 -0 -0 -0 -0 -0 -0 -0 -0 -0 -0 -0 -0 -0 -0 -0 -0 -0 -0 -0 -0 -0 -0 -0
-0 -0 -0 -0 -0 -0 -0 -0 -0 -0 -0 -0 -0 -0 -0 -0 -0 -0 -0 -0 -0 -0 -0 -0 -0 -0 -0 -0 -0 -0 -0 -0 -0 -0 -0 -0 -0 -0 -0 -0 -0 -0 -0 -0 -0 -0 -0 -0 -0 -0 -0 -0 -0 -0
-0 -0 -3 -3 -28 -0 -0 -0 -0 -0 -0 -0 -0 -0 -0 -0 -0 -0 -0 -0 -0 -0 -0 -0 -0 -0 -0 -0 -0 -0 -0 -0 -0 -0 -0 -0 -0 -0 -0 -0 -0 -0 -0 -0 -0 -0 -0 -0 -0 -0 -0 -0 -0 -0
-0 -0 -0 -5 -0 -0 -0 -0 -0 -0 -0 -0 -0 -0 -0 -0 -0 -0 -0 -0 -0 -0 -0 -0 -0 -0 -0 -0 -0 -0 -0 -0 -0 -0 -0 -0 -0 -0 -0 -0 -0 -0 -0 -0 -0 -0 -0 -0 -0 -0 -0 -0 -0 -0
-1 -0 -1 -3 -0 -0 -0 -0 -0 -0 -0 -0 -0 -0 -0 -0 -0 -0 -0 -0 -0 -0 -0 -0 -0 -0 -0 -0 -0 -0 -0 -0 -0 -0 -0 -0 -0 -0 -0 -0 -0 -0 -0 -0 -0 -0 -0 -0 -0 -0 -0 -0 -0 -0
-1 -0 -0 -0 -0 -0 -0 -0 -0 -0 -0 -0 -0 -0 -0 -0 -0 -0 -0 -0 -0 -0 -0 -0 -0 -0 -0 -0 -0 -0 -0 -0 -0 -0 -0 -0 -0 -0 -0 -0 -0 -0 -0 -0 -0 -0 -0 -0 -0 -0 -0 -0 -0 -0
-0 -0 -0 -0 -0 -0 -0 -0 -0 -0 -0 -0 -0 -0 -0 -0 -0 -0 -0 -0 -0 -0 -0 -0 -0 -0 -0 -0 -0 -0 -0 -0 -0 -0 -0 -0 -0 -0 -0 -0 -0 -0 -0 -0 -0 -0 -0 -0 -0 -0 -0 -0 -0 -0
-0 -1 -0 -0 -0 -0 -0 -0 -0 -0 -0 -0 -0 -0 -0 -0 -0 -0 -0 -0 -0 -0 -0 -0 -0 -0 -0 -0 -0 -0 -0 -0 -0 -0 -0 -0 -0 -0 -0 -0 -0 -0 -0 -0 -0 -0 -0 -0 -0 -0 -0 -0 -0 -0
-0 -0 -0 -0 -0 -0 -0 -0 -0 -0 -0 -0 -0 -0 -0 -0 -0 -0 -0 -0 -0 -0 -0 -0 -0 -0 -0 -0 -0 -0 -0 -0 -0 -0 -0 -0 -0 -0 -0 -0 -0 -0 -0 -0 -0 -0 -0 -0 -0 -0 -0 -0 -0 -0
-0 -2 -0 -0 -0 -0 -0 -0 -0 -0 -0 -0 -0 -0 -0 -0 -0 -0 -0 -0 -0 -0 -0 -0 -0 -0 -0 -0 -0 -0 -0 -0 -0 -0 -0 -0 -0 -0 -0 -0 -0 -0 -0 -0 -0 -0 -0 -0 -0 -0 -0 -0 -0 -0
-0 -0 -0 -0 -0 -0 -0 -0 -0 -0 -0 -0 -0 -0 -0 -0 -0 -0 -0 -0 -0 -0 -0 -0 -0 -0 -0 -0 -0 -0 -0 -0 -0 -0 -0 -0 -0 -0 -0 -0 -0 -0 -0 -0 -0 -0 -0 -0 -0 -0 -0 -0 -0 -0
-0 -0 -0 -0 -0 -0 -0 -0 -0 -0 -0 -0 -0 -0 -0 -0 -0 -0 -0 -0 -0 -0 -0 -0 -0 -0 -0 -0 -0 -0 -0 -0 -0 -0 -0 -0 -0 -0 -0 -0 -0 -0 -0 -0 -0 -0 -0 -0 -0 -0 -0 -0 -0 -0
-0 -0 -0 -0 -0 -0 -0 -0 -0 -0 -0 -0 -0 -0 -0 -0 -0 -0 -0 -0 -0 -0 -0 -0 -0 -0 -0 -0 -0 -0 -0 -0 -0 -0 -0 -0 -0 -0 -0 -0 -0 -0 -0 -0 -0 -0 -0 -0 -0 -0 -0 -0 -0 -0
-0 -0 -0 -0 -0 -0 -0 -0 -0 -0 -0 -0 -0 -0 -0 -0 -0 -0 -0 -0 -0 -0 -0 -0 -0 -0 -0 -0 -0 -0 -0 -0 -0 -0 -0 -0 -0 -0 -0 -0 -0 -0 -0 -0 -0 -0 -0 -0 -0 -0 -0 -0 -0 -0
-0 -0 -0 -0 -0 -0 -0 -0 -0 -0 -0 -0 -0 -0 -0 -0 -0 -0 -0 -0 -0 -0 -0 -0 -0 -0 -0 -0 -0 -0 -0 -0 -0 -0 -0 -0 -0 -0 -0 -0 -0 -0 -0 -0 -0 -0 -0 -0 -0 -0 -0 -0 -0 -0
-0 -0 -0 -0 -0 -0 -0 -0 -0 -0 -0 -0 -0 -0 -0 -0 -0 -0 -0 -0 -0 -0 -0 -0 -0 -0 -0 -0 -0 -0 -0 -0 -0 -0 -0 -0 -0 -0 -0 -0 -0 -0 -0 -0 -0 -0 -0 -0 -0 -0 -0 -0 -0 -0
-0 -0 -0 -0 -0 -0 -0 -0 -0 -0 -0 -0 -0 -0 -0 -0 -0 -0 -0 -0 -0 -0 -0 -0 -0 -0 -0 -0 -0 -0 -0 -0 -0 -0 -0 -0 -0 -0 -0 -0 -0 -0 -0 -0 -0 -0 -0 -0 -0 -0 -0 -0 -0 -0
-0 -0 -0 -0 -0 -0 -0 -0 -0 -0 -0 -0 -0 -0 -0 -0 -0 -0 -0 -0 -0 -0 -0 -0 -0 -0 -0 -0 -0 -0 -0 -0 -0 -0 -0 -0 -0 -0 -0 -0 -0 -0 -0 -0 -0 -0 -0 -0 -0 -0 -0 -0 -0 -0
-0 -0 -0 -0 -0 -0 -0 -0 -0 -0 -0 -0 -0 -0 -0 -0 -0 -0 -0 -0 -0 -0 -0 -0 -0 -0 -0 -0 -0 -0 -0 -0 -0 -0 -0 -0 -0 -0 -0 -0 -0 -0 -0 -0 -0 -0 -0 -0 -0 -0 -0 -0 -0 -0
-0 -0 -0 -0 -0 -0 -0 -0 -0 -0 -0 -0 -0 -0 -0 -0 -0 -0 -0 -0 -0 -0 -0 -0 -0 -0 -0 -0 -0 -0 -0 -0 -0 -0 -0 -0 -0 -0 -0 -0 -0 -0 -0 -0 -0 -0 -0 -0 -0 -0 -0 -0 -0 -0
-0 -0 -0 -0 -0 -0 -0 -0 -0 -0 -0 -0 -0 -0 -0 -0 -0 -0 -0 -0 -0 -0 -0 -0 -0 -0 -0 -0 -0 -0 -0 -0 -0 -0 -0 -0 -0 -0 -0 -0 -0 -0 -0 -0 -0 -0 -0 -0 -0 -0 -0 -0 -0 -0
-0 -0 -0 -0 -0 -0 -0 -0 -0 -0 -0 -0 -0 -0 -0 -0 -0 -0 -0 -0 -0 -0 -0 -0 -0 -0 -0 -0 -0 -0 -0 -0 -0 -0 -0 -0 -0 -0 -0 -0 -0 -0 -0 -0 -0 -0 -0 -0 -0 -0 -0 -0 -0 -0
-0 -0 -0 -0 -0 -0 -0 -0 -0 -0 -0 -0 -0 -0 -0 -0 -0 -0 -0 -0 -0 -0 -0 -0 -0 -0 -0 -0 -0 -0 -0 -0 -0 -0 -0 -0 -0 -0 -0 -0 -0 -0 -0 -0 -0 -0 -0 -0 -0 -0 -0 -0 -0 -0
Wind_Speed
4 10 12 20 25 28 27 25 26 27 26 26 25 25 21 18 11 11 12 10 9 10 12 9 10 7 6 5 6 6 5 11 11 11 10 11 11 10 11 11 12 11 12 13 14 14 16 16 19 22 22 23 24 23
6 8 12 17 20 22 22 23 23 23 22 23 23 21 17 14 10 8 8 8 5 6 8 2 1 7 9 9 3 9 10 9 10 9 11 12 12 11 10 12 10 12 9 11 10 14 15 17 17 20 21 20 21 22
8 11 14 16 18 20 21 22 21 21 20 19 18 16 14 12 11 10 9 8 8 9 5 3 5 7 8 9 11 10 13 9 10 10 9 13 13 11 10 11 11 8 8 11 17 15 13 13 17 19 19 18 20 21
8 10 12 14 17 18 19 18 19 18 20 19 17 15 13 11 11 11 11 12 9 6 9 8 11 8 12 9 9 8 5 6 7 10 13 14 14 12 12 12 9 8 6 9 18 19 16 14 15 19 18 17 19 21
8 10 12 14 15 18 17 17 17 18 18 17 16 15 16 16 14 11 9 10 13 10 17 10 6 7 7 4 5 6 8 7 9 12 14 15 14 14 13 11 7 4 5 8 15 14 17 18 17 18 16 18 20 23
11 11 13 14 16 18 17 16 17 17 17 16 16 15 14 15 20 14 13 11 12 13 10 13 11 8 5 5 6 6 8 10 12 13 14 15 14 14 15 13 9 5 9 16 18 13 16 16 17 17 18 20 22 23
12 13 14 15 16 17 17 17 17 17 16 14 14 15 16 15 14 17 19 18 16 13 9 9 10 12 9 7 8 9 11 12 13 14 15 15 15 14 15 15 11 8 6 14 13 12 16 16 19 19 20 21 22 24
13 14 14 15 17 17 17 16 16 16 17 16 15 14 12 12 12 11 11 13 12 7 9 8 8 8 11 7 8 11 10 13 15 15 15 16 15 15 16 13 12 10 7 14 16 18 17 15 16 19 20 22 24 26
12 14 14 15 16 17 16 16 16 16 16 15 14 14 14 13 14 16 15 9 5 10 8 9 3 4 8 7 9 10 12 13 15 16 16 15 16 16 15 13 11 11 8 11 13 15 16 17 18 20 21 23 25 28
12 14 13 15 17 17 17 17 16 16 17 16 15 15 15 15 16 14 12 12 11 12 10 7 7 4 3 6 9 10 13 14 16 16 15 16 16 14 14 12 11 10 9 11 16 19 18 18 19 21 23 24 26 28
13 13 14 15 16 16 16 17 16 16 15 17 14 14 13 14 11 10 10 12 13 10 10 6 3 6 6 8 8 13 12 14 16 16 16 17 16 16 15 14 13 11 11 15 16 16 17 17 19 21 23 25 26 28
14 14 14 14 14 14 15 15 14 14 15 13 8 8 11 10 9 8 10 11 11 9 6 1 4 5 7 9 11 13 14 14 16 14 17 18 15 14 13 13 13 12 12 13 14 15 17 19 20 22 24 26 27 27
14 14 12 12 13 12 12 12 8 9 11 9 8 10 12 13 10 9 5 8 8 5 1 4 3 7 9 12 13 14 15 15 14 16 17 16 15 13 11 11 11 12 13 13 15 16 18 19 21 24 26 26 27 28
15 14 12 12 11 11 9 8 10 12 10 10 11 12 13 12 11 10 9 7 7 1 8 4 5 10 10 12 13 15 15 14 16 17 17 16 14 12 11 10 9 11 12 14 16 17 19 20 22 23 26 27 28 29
16 11 12 11 10 9 7 9 9 10 11 10 11 13 12 10 8 7 7 6 3 3 1 3 9 11 12 13 15 14 15 15 15 16 16 15 15 12 11 10 11 11 12 15 17 19 19 20 22 24 26 26 27 27
18 12 11 12 10 7 7 8 8 9 11 13 12 10 9 7 6 4 1 1 6 3 5 10 11 12 14 13 14 14 13 14 15 14 15 15 14 13 12 11 10 11 12 15 18 19 20 21 23 24 24 26 27 28
12 15 16 13 9 5 5 7 9 9 9 11 12 9 8 5 6 5 4 6 8 8 9 10 12 14 12 14 14 13 14 13 13 14 15 14 12 11 11 11 11 11 13 15 18 20 21 21 23 25 26 27 27 27
14 17 16 13 11 6 6 7 8 8 8 7 8 8 7 8 6 7 8 10 9 10 12 13 12 13 13 13 13 12 11 13 14 14 14 13 12 12 11 11 12 13 14 16 18 19 20 22 24 25 25 25 25 26
16 16 14 11 14 9 7 8 8 8 8 6 6 7 7 7 8 8 8 9 10 11 11 13 14 14 14 13 13 12 11 11 12 13 12 13 12 12 13 13 13 13 14 16 18 19 21 22 23 22 23 25 26 26
16 15 12 10 13 10 8 8 8 6 7 7 7 7 7 8 8 8 9 10 11 12 14 15 15 15 14 13 12 14 12 10 10 11 11 12 12 12 13 13 14 14 15 16 17 18 20 21 21 22 23 24 26 27
14 15 13 12 10 9 10 10 8 7 5 6 6 7 7 8 9 11 12 14 14 14 15 16 16 15 14 16 15 15 10 8 8 10 10 9 10 12 13 14 14 15 15 16 17 19 20 21 22 22 23 25 25 25
17 15 12 10 10 10 9 11 8 10 10 9 10 11 11 12 14 16 17 17 17 18 17 17 17 13 15 16 14 11 7 9 12 13 13 10 9 10 11 12 13 14 15 16 17 18 20 20 21 22 24 25 25 24
13 15 12 11 11 11 11 11 11 12 12 12 13 13 14 15 16 17 19 19 20 19 18 17 16 15 13 13 12 11 11 10 11 11 11 11 10 11 12 13 13 14 15 15 16 18 20 20 21 23 23 25 26 25
12 13 14 15 14 14 12 13 12 12 12 13 14 16 17 18 19 21 23 24 22 20 18 15 12 11 11 10 10 10 13 12 11 11 11 10 11 12 12 13 14 15 16 16 17 18 18 19 20 22 23 24 25 26
14 14 14 15 15 15 15 15 14 15 16 15 16 18 19 19 23 25 26 26 22 18 13 11 9 9 9 10 11 12 12 9 9 9 11 10 11 12 13 14 15 16 16 17 19 20 21 19 20 21 21 23 24 25
16 15 15 15 15 17 16 17 18 17 16 19 19 18 19 21 25 26 23 19 16 14 11 8 6 7 11 14 10 10 8 8 9 10 9 10 11 12 12 12 13 15 16 17 19 20 21 21 20 20 21 21 22 22
18 16 15 15 13 12 13 15 14 16 18 18 16 16 18 22 22 19 17 15 15 16 12 8 8 12 13 12 11 10 9 9 9 9 9 10 10 11 12 12 12 14 15 17 18 20 21 21 21 21 21 21 22 21
15 14 14 14 16 18 18 18 19 19 18 16 13 18 19 19 18 16 14 15 16 16 13 13 15 15 11 8 7 7 8 8 9 10 11 12 13 13 13 14 15 15 15 17 18 19 20 21 21 21 21 21 21 21
13 12 9 12 15 18 20 20 21 21 16 15 20 23 24 21 19 18 18 18 16 12 12 11 13 12 11 9 8 7 5 6 6 6 7 9 10 11 12 14 15 15 15 15 17 18 19 19 20 20 20 20 20 20
17 15 16 17 18 20 19 18 20 20 21 21 23 23 23 23 23 22 21 17 13 8 10 10 8 8 8 6 5 5 5 4 6 7 6 7 8 10 11 13 14 15 15 15 16 18 19 19 20 20 20 20 20 21
19 21 21 22 24 22 20 20 21 22 24 25 25 26 27 26 27 27 25 20 15 13 11 9 9 8 6 5 2 1 1 2 5 7 10 10 9 9 10 12 13 14 15 15 16 17 18 19 20 20 20 21 21 22
26 28 28 29 27 25 24 25 25 26 26 27 28 28 28 28 30 26 23 14 14 13 12 8 8 7 4 5 4 4 7 4 4 4 7 8 9 9 11 12 13 14 15 16 16 17 18 19 20 20 21 21 22 23
23 23 23 24 25 25 25 25 26 27 28 29 29 28 29 28 30 26 23 21 23 21 9 5 8 8 3 4 3 5 5 3 3 4 6 8 9 10 11 12 13 14 15 16 16 17 18 19 20 21 22 22 23 24
Wind_Direction
194 161 116 113 120 122 127 134 144 148 148 155 162 163 170 196 209 227 226 244 230 235 218 232 225 208 201 229 211 228 272 279 279 297 316 337 347 348 355 4 3 4 6 6 12 7 0 348 342 333 329 329 316 346
153 133 136 126 125 128 133 140 148 153 153 164 160 157 182 181 205 227 220 230 208 196 177 169 134 249 251 251 200 253 274 269 294 324 331 334 349 356 2 354 8 1 16 17 18 3 2 358 352 325 324 336 338 347
129 124 132 137 127 130 133 137 140 144 147 155 156 159 164 179 201 211 162 147 133 138 122 173 221 244 243 245 246 250 263 292 305 327 353 349 355 3 359 354 6 18 32 6 343 355 13 17 342 320 337 354 347 350
139 130 127 129 140 139 143 132 129 133 129 137 143 153 168 171 155 163 174 205 181 183 194 213 229 241 245 259 267 280 27 344 7 353 346 353 358 12 3 8 11 22 41 2 319 331 359 9 351 325 338 356 350 353
150 128 133 133 130 142 136 129 129 128 132 132 131 134 131 131 130 131 158 195 207 219 200 194 224 256 263 315 8 26 45 22 334 337 344 352 8 10 10 15 7 34 359 343 327 344 354 343 344 342 355 348 347 343
161 137 136 141 141 140 142 131 128 124 123 127 130 133 148 164 182 180 191 215 205 199 188 215 229 250 290 354 7 356 346 344 341 346 355 4 16 14 8 5 25 53 328 295 307 348 353 358 343 345 343 339 341 344
154 142 135 142 147 146 140 135 128 123 125 126 141 159 170 179 191 203 205 201 204 207 221 224 241 246 265 291 304 324 334 339 344 354 355 10 17 27 13 7 38 77 350 297 319 346 345 353 335 341 339 336 341 340
160 154 146 143 148 151 143 134 132 129 122 120 128 141 149 160 185 197 202 206 215 228 244 253 259 259 265 293 312 314 341 345 345 3 12 13 24 24 20 46 57 84 11 299 305 313 334 0 356 345 345 341 335 334
155 158 154 153 154 152 149 147 142 140 145 150 156 170 183 199 208 203 208 218 256 256 265 271 254 298 279 310 326 332 342 347 356 358 6 15 14 16 30 50 70 90 37 310 317 329 338 341 342 343 341 337 336 334
137 144 146 153 156 156 158 161 160 163 170 177 190 195 203 209 206 214 228 239 261 270 287 279 285 348 333 341 338 343 344 349 350 1 20 6 9 24 29 43 63 77 25 323 311 315 326 336 337 340 341 343 340 338
135 133 144 142 149 155 157 168 173 181 192 199 207 208 194 211 220 245 248 255 261 280 284 290 326 74 317 345 346 340 353 354 351 0 5 3 7 21 35 42 47 30 5 329 328 334 337 341 342 344 343 344 346 344
146 137 138 148 153 160 169 177 187 200 209 213 178 195 216 242 259 277 265 270 277 277 293 58 57 353 348 351 346 345 349 359 351 21 5 2 16 27 39 43 36 14 10 1 357 347 347 345 347 344 341 340 346 346
145 148 142 142 152 155 165 189 173 143 190 213 225 239 246 263 269 275 269 274 280 285 62 99 40 342 346 347 347 345 344 347 11 358 358 9 21 31 41 46 33 4 354 357 357 357 357 356 354 349 340 344 342 340
138 134 133 141 148 157 174 161 192 221 237 242 245 242 260 270 281 281 269 268 289 0 116 90 329 322 338 334 341 340 346 354 350 352 360 14 23 34 43 46 34 11 356 349 345 350 352 355 354 356 351 345 341 338
132 128 134 143 148 165 173 194 233 247 246 253 263 257 273 274 285 290 270 270 279 122 105 329 321 327 320 332 333 342 344 347 353 358 11 19 25 39 49 55 43 31 9 352 343 345 350 355 354 351 352 352 350 345
124 129 188 137 148 164 193 219 264 263 264 260 274 269 263 261 288 307 284 202 259 259 297 304 311 314 318 331 334 338 349 352 359 12 17 23 33 48 58 59 43 34 19 358 348 347 349 350 349 351 353 352 350 348
177 202 133 142 149 178 227 258 273 272 273 268 262 271 266 268 270 277 263 256 266 273 294 311 314 317 332 328 331 342 346 2 12 15 20 29 44 51 54 46 34 18 7 358 350 347 346 349 349 348 347 348 351 352
200 134 127 141 179 206 246 278 267 275 269 271 261 269 273 275 276 277 270 276 280 287 300 311 320 319 327 332 337 351 7 8 10 17 22 33 38 40 36 30 20 12 3 355 353 351 350 350 349 349 351 353 354 354
143 142 141 157 196 215 257 282 288 264 274 277 278 275 281 284 292 293 291 293 297 299 310 310 318 319 322 331 342 0 8 6 8 14 24 25 27 27 23 19 17 13 7 0 355 352 353 353 352 356 357 357 354 353
144 155 168 192 220 236 266 273 272 297 264 274 279 280 284 283 289 299 303 299 300 303 305 308 312 317 326 338 352 349 357 12 22 22 21 19 18 23 24 24 22 21 16 14 12 9 2 1 4 2 1 359 355 354
184 198 203 223 245 260 254 244 269 266 278 285 278 286 296 293 296 296 298 297 299 304 307 303 311 320 327 327 336 343 1 19 24 13 14 21 23 23 23 24 26 26 23 21 16 13 11 10 10 10 7 1 0 359
205 203 214 249 253 268 265 268 265 262 268 262 268 284 296 293 293 290 290 291 295 293 301 310 318 329 332 334 341 346 4 356 347 352 3 23 27 27 27 31 30 27 27 28 27 23 19 18 15 12 9 5 5 4
201 208 232 255 256 266 255 267 264 272 272 267 271 287 292 293 292 291 291 290 289 298 306 311 324 331 340 349 360 3 346 347 351 357 6 15 26 26 29 29 36 40 38 37 36 28 20 21 17 16 15 11 8 8
220 229 239 246 256 256 260 264 276 277 283 279 280 285 290 292 298 293 291 296 299 304 309 316 330 338 344 354 355 349 331 347 360 7 19 29 24 22 34 43 46 42 40 39 33 27 25 22 21 19 19 16 14 13
230 242 248 250 255 253 258 260 270 277 278 285 291 296 300 303 299 297 299 301 305 308 314 322 326 332 338 341 335 328 335 11 15 19 11 27 39 44 42 45 43 40 40 33 24 22 21 27 23 22 22 20 18 18
241 253 252 250 249 255 258 261 269 277 285 284 292 303 305 305 300 299 307 313 319 321 323 324 327 332 320 311 326 330 352 4 12 8 29 67 74 66 57 48 41 35 36 33 29 25 23 24 26 25 26 25 23 25
248 254 255 259 263 265 274 277 283 283 282 287 296 302 306 304 306 314 318 321 321 319 322 332 319 303 307 314 331 341 350 355 360 11 45 65 57 56 54 46 43 38 40 35 33 29 26 27 29 29 31 31 29 31
260 261 251 255 262 266 265 268 271 275 281 290 299 294 300 305 306 308 310 320 314 306 307 297 292 304 328 344 356 8 358 12 22 30 34 22 21 30 36 38 40 43 41 37 36 34 32 32 31 33 33 35 34 36
266 267 275 272 277 277 275 274 273 277 290 288 285 286 288 292 292 292 292 294 306 320 316 319 312 325 330 333 340 351 42 64 57 44 32 29 36 38 42 43 40 40 43 41 38 35 33 34 36 36 37 38 37 36
259 269 274 274 271 271 276 281 277 283 283 281 283 285 276 272 270 270 284 301 314 337 329 331 343 334 331 340 340 339 343 27 13 24 43 47 53 55 54 44 39 40 42 43 41 39 37 36 37 37 35 34 33 30
254 251 254 254 252 262 278 282 282 279 274 267 264 259 262 265 267 271 279 292 302 309 316 322 322 326 327 329 340 357 358 68 0 9 11 29 46 62 52 43 41 43 45 44 43 41 37 35 31 30 30 29 29 25
234 236 243 243 251 257 261 261 259 257 256 255 255 261 267 271 270 282 293 301 298 304 305 313 312 318 332 330 326 324 331 124 104 46 31 34 48 53 46 40 41 42 43 42 42 41 35 34 29 26 26 24 23 19
247 248 251 251 251 253 255 257 259 259 259 260 263 268 271 273 273 283 298 299 290 292 302 310 316 321 332 328 327 318 336 40 64 34 35 53 56 47 41 41 42 42 40 40 40 37 32 29 25 22 21 19 18 16